Location: Hebron
(33.0265°N, 96.8636°W)
Time: 00:53:57
(UTC+00:00)

Cosmos 1538 Rocket - Pass Details

Date: 05 July 2022
Orbit: 752 x 791 km, 74.0° (Epoch: 16 August)

Event Time Altitude Azimuth Distance (km) Brightness Sun altitude
Exits shadow 10:29:18 - 187° (S) 2,997 6.7 -10.6°
Reaches altitude 10° 10:31:05 10° 185° (S) 2,303 6.1 -10.3°
Maximum altitude 10:36:15 66° 104° (ESE) 831 4.4 -9.4°
Drops below altitude 10° 10:41:24 10° 23° (NNE) 2,292 7.5 -8.5°
Sets 10:43:47 0° 21° (NNE) 3,216 8.2 -8.1°
